Marysville, CA

5:21 AM PST on December 14, 2019 (GMT -0800)
Yuba County

Weather History for KMYV - June, 2019

Change the Weather History Date:

Friday, June 7, 2019

  Actual Average Record
Temperature  
Mean Temperature 66 °F -  
Max Temperature 80 °F 86 °F 107 °F (2013)
Min Temperature 54 °F 58 °F 43 °F (2005)
Cooling Degree Days 2    
Growing Degree Days 16 (Base 50)    
Moisture  
Dew Point 39 °F    
Average Humidity 40    
Maximum Humidity 83    
Minimum Humidity 15    
Precipitation  
Precipitation 0.00 in - - ()
Sea Level Pressure  
Sea Level Pressure 29.97 in    
Wind  
Wind Speed 10 mph (NNW)    
Max Wind Speed 18 mph    
Max Gust Speed 26 mph    
Visibility 10 miles    
Events Rain    
Averages and records for this station are not official NWS values.
T = Trace of Precipitation, MM = Missing Value Source: NWS Daily Summary

Daily Weather History Graph

Daily Weather History Graph

Search for Another Location

Airport or City:

Astronomy

Jun. 07, 2019 Rise Set
Actual Time 5:40 AM PDT 8:30 PM PDT
Civil Twilight 5:08 AM PDT 9:02 PM PDT
Nautical Twilight 4:28 AM PDT 9:42 PM PDT
Astronomical Twilight 3:42 AM PDT 10:28 PM PDT
Moon 10:03 AM PDT (6/7) No Moon Set
Length of Visible Light 15h 53m
Length of Day
14h 49m
Waxing Crescent, 23% of the Moon is Illuminated
Jun 7
Waxing Crescent
Jun 9
First Quarter
Jun 17
Full
Jun 25
Last Quarter
Jul 2
New

Hourly Weather History & Observations

Time (PDT) Temp. Dew Point Humidity Pressure Visibility Wind Dir Wind Speed Gust Speed Precip Events Conditions
12:53 AM 61.0 °F 46.0 °F 58% 29.89 in 10.0 mi SSE 11.5 mph - 0.00 in Rain Light Rain
1:53 AM 57.9 °F 46.0 °F 65% 29.90 in 10.0 mi South 6.9 mph - 0.00 in   Clear
2:53 AM 57.0 °F 46.9 °F 69% 29.91 in 10.0 mi SSE 5.8 mph - N/A   Clear
3:53 AM 55.0 °F 46.9 °F 74% 29.93 in 10.0 mi ESE 3.5 mph - N/A   Clear
4:53 AM 54.0 °F 48.0 °F 80% 29.94 in 10.0 mi East 3.5 mph - N/A   Clear
5:53 AM 55.0 °F 46.9 °F 74% 29.96 in 10.0 mi ESE 3.5 mph - N/A   Clear
6:53 AM 55.0 °F 50.0 °F 83% 29.98 in 10.0 mi NW 3.5 mph - N/A   Clear
7:53 AM 60.1 °F 48.0 °F 64% 30.00 in 10.0 mi NW 4.6 mph - N/A   Clear
8:53 AM 64.0 °F 41.0 °F 43% 30.01 in 10.0 mi NNW 11.5 mph - N/A   Clear
9:53 AM 68.0 °F 39.9 °F 36% 30.01 in 10.0 mi NW 13.8 mph 20.7 mph N/A   Clear
10:53 AM 70.0 °F 41.0 °F 35% 30.01 in 10.0 mi NW 16.1 mph 23.0 mph N/A   Clear
11:53 AM 73.0 °F 41.0 °F 31% 30.01 in 10.0 mi NW 18.4 mph 25.3 mph 0.00 in Rain Light Rain
12:53 PM 75.0 °F 37.9 °F 26% 30.00 in 10.0 mi NW 15.0 mph 25.3 mph 0.00 in Rain Light Rain
1:53 PM 77.0 °F 33.1 °F 20% 30.00 in 10.0 mi NNW 17.3 mph 26.5 mph 0.00 in Rain Light Rain
2:53 PM 79.0 °F 32.0 °F 18% 29.99 in 10.0 mi NNW 15.0 mph 23.0 mph 0.00 in   Clear
3:53 PM 79.0 °F 32.0 °F 18% 29.98 in 10.0 mi NW 15.0 mph 23.0 mph 0.00 in   Clear
4:53 PM 79.0 °F 27.0 °F 15% 29.97 in 10.0 mi NNW 15.0 mph 23.0 mph N/A   Clear
5:53 PM 79.0 °F 28.9 °F 16% 29.96 in 10.0 mi NNW 16.1 mph 25.3 mph 0.00 in   Clear
6:53 PM 77.0 °F 30.9 °F 19% 29.96 in 10.0 mi NNW 17.3 mph 26.5 mph N/A   Clear
7:53 PM 73.9 °F 32.0 °F 21% 29.96 in 10.0 mi NNW 12.7 mph 23.0 mph N/A   Clear
8:53 PM 70.0 °F 30.9 °F 24% 29.97 in 10.0 mi NNW 11.5 mph - N/A   Clear
9:53 PM 69.1 °F 33.1 °F 26% 29.97 in 10.0 mi NNW 16.1 mph - N/A   Clear
10:53 PM 68.0 °F 33.1 °F 27% 29.98 in 10.0 mi NNW 16.1 mph 24.2 mph N/A   Clear
11:53 PM 66.0 °F 34.0 °F 30% 29.99 in 10.0 mi NNW 15.0 mph - N/A   Clear